Location: Cremeno
(45.9333°N, 9.4667°E)
Time: 14:21:06
(UTC+00:00)

Daily predictions for brighter satellites

Satellite Brightness Start Highest point End
(mag) Time Altitude Azimuth Time Altitude Azimuth Time Altitude Azimuth
DMSP B5D2-2 4.1 18:43:20 10° NNE 18:48:36 75° ESE 18:53:51 10° S
H-2A R/B 4.0 18:45:24 10° SSW 18:49:44 30° W 18:54:03 10° NW
Cosmos 1892 3.5 18:49:14 10° NNW 18:52:57 55° W 18:56:40 10° S
Cosmos 1825 2.2 18:50:47 10° N 18:54:34 66° E 18:58:18 10° SSE
MetOp-A 4.2 18:52:28 10° SSE 18:57:50 87° ENE 19:03:13 10° NNW
Exosat Rocket 3.8 18:51:44 10° NNW 18:58:05 79° ENE 19:03:10 10° SSE
Cosmos 2227 Rocket 3.2 18:53:53 10° SSE 18:58:16 24° ESE 19:02:39 10° NE
CZ-4C R/B 4.4 18:53:59 10° W 18:58:30 27° NNW 19:03:47 10° NNE
Abrixas rocket 0.8 18:57:23 10° W 18:58:56 56° NNW 19:00:30 10° ENE
ATLAS 2AS CENTAUR R/B 3.7 18:52:32 10° SW 19:00:22 63° NW 19:08:04 10° NE
BREEZE-M DEB (TANK) 3.8 18:57:34 10° WSW 19:00:29 77° NNW 19:07:48 10° ENE
Cosmos 1092 Rocket 4.1 18:55:17 10° N 19:01:34 85° W 19:07:44 10° S
Cosmos 2058 2.9 18:59:59 10° N 19:04:12 80° E 19:08:20 10° SSE
Cosmos 2297 Rocket 2.8 18:59:44 10° SSE 19:04:45 34° ESE 19:09:47 10° NE
FALCON 9 DEB 3.9 19:03:24 10° SSW 19:05:58 25° SE 19:08:33 10° E
Cosmos 1633 3.9 19:03:54 10° NNE 19:06:48 23° ENE 19:09:14 12° ESE
Cosmos 405 4.2 19:03:27 10° SSW 19:06:49 46° WNW 19:10:12 10° N
Lacrosse 5 rocket 3.8 19:04:40 10° NW 19:07:36 18° N 19:10:39 10° NE
FALCON 9 DEB 3.5 19:07:51 10° SSW 19:10:37 33° SE 19:13:23 10° ENE
Resurs 01 Rocket 2.5 19:08:36 11° SE 19:12:24 32° ENE 19:16:22 10° N
Cosmos 2219 3.7 19:08:49 10° S 19:13:52 36° ESE 19:18:57 10° NE
Resurs 1-3 3.8 19:09:47 10° SSE 19:14:03 54° ENE 19:18:21 10° N
Genesis I 4.1 19:10:52 10° NNW 19:14:36 37° NE 19:17:40 14° ESE
BREEZE-M DEB (TANK) 3.7 19:11:59 10° W 19:15:42 73° N 19:28:39 10° ENE
Cosmos 2333 Rocket 3.6 19:11:29 10° NW 19:16:47 39° WSW 19:22:01 10° S
SJ-6B 2.9 19:14:18 10° S 19:18:02 75° WSW 19:21:49 10° NNW
CZ-2C R/B 4.3 19:16:08 10° N 19:20:54 37° WNW 19:25:41 10° SW
Cosmos 2084 Rocket 3.9 19:18:30 10° S 19:22:02 32° ESE 19:25:39 10° ENE
Cosmos 389 Rocket 2.4 19:19:04 10° S 19:22:33 62° E 19:26:06 10° NNE
FALCON 9 DEB 3.0 19:19:43 10° SW 19:22:38 45° SE 19:25:34 10° ENE
ERS-2 3.7 19:19:49 10° N 19:23:14 39° WNW 19:26:38 10° SW
Ariane Rocket 3.0 19:19:23 10° SSE 19:24:26 81° ENE 19:29:30 10° NNW
Cosmos 614 Rocket 4.0 19:21:02 10° SSW 19:26:11 89° WNW 19:31:19 10° NNE
Terra 4.1 19:27:07 10° ENE 19:27:15 10° NE 19:27:24 10° NE
Cosmos 2251 Rocket 4.0 19:22:39 10° SSW 19:27:59 66° WNW 19:33:18 10° NNE
ATLAS 3B R/B 3.4 19:24:33 10° NW 19:31:25 56° WSW 19:38:33 10° SSE
Cosmos 2279 Rocket 3.9 19:26:35 10° S 19:32:44 77° E 19:38:56 10° N
SPOT 1/Viking Rocket 4.4 19:33:39 18° ESE 19:36:54 34° ENE 19:41:35 10° N
MOS 1 4.4 19:32:09 10° S 19:37:47 78° WSW 19:43:28 10° NNW
Cosmos-2242 3.5 19:35:48 15° SSE 19:38:54 38° E 19:42:55 10° NNE
Cosmos 1980 3.7 19:33:40 10° NNW 19:39:24 87° WSW 19:44:12 15° SSE
SL-16 R/B 3.0 19:34:42 10° NNW 19:39:58 37° NE 19:43:26 19° ESE
USA 215 3.9 19:34:16 11° E 19:40:14 48° NNE 19:46:27 10° NW
Cosmos 2151 3.1 19:37:05 10° N 19:41:20 57° ENE 19:44:09 20° SSE
FALCON 9 DEB 2.7 19:41:24 10° SW 19:44:26 60° SE 19:46:41 16° ENE
SPOT 3 Rocket 3.6 19:40:39 17° SSE 19:44:42 65° ENE 19:49:50 10° N
COSMOS 2455 3.4 19:42:38 10° S 19:47:59 35° ESE 19:53:22 10° NE
SL-4 R/B 2.2 19:47:03 10° SW 19:51:21 63° SE 19:55:58 10° ENE
Cosmos 2219 Rocket 4.3 19:49:13 10° NW 19:53:37 23° WSW 19:57:59 10° SSW
BREEZE M DEB (TANK) 4.0 19:51:15 10° SSW 19:54:37 41° SE 20:03:54 10° ENE
ERS-1 Rocket 4.2 19:53:53 20° E 19:55:51 26° ENE 19:59:56 10° N
IGS 5A 3.4 19:54:21 24° SSE 19:56:45 74° ENE 20:00:54 10° N
Cosmos 1076 Rocket 4.2 19:53:17 10° NNW 19:57:31 52° W 20:01:41 10° S
OBJECT-B 3.3 19:55:29 10° SW 19:58:01 21° W 20:00:33 10° NW
Landsat 7 3.8 19:55:13 23° SSE 19:58:08 69° ENE 20:02:53 10° N
Cosmos 2266 Rocket 4.0 19:51:48 10° N 19:58:11 68° E 20:02:36 20° SSE
ATLAS 5 CENTAUR R/B 3.6 19:58:57 10° WSW 19:59:51 12° SW 20:00:56 10° SSW
Cosmos 2221 4.3 20:05:05 17° ENE 20:05:05 17° ENE 20:07:14 10° NE
ARIANE 5 R/B 3.3 20:04:04 30° ESE 20:05:29 39° ENE 20:09:34 10° N
Cosmos 2344 4.3 19:58:41 10° WSW 20:05:58 56° NW 20:13:56 10° NE
USA 245 3.4 20:05:50 40° E 20:06:21 43° ENE 20:09:16 10° N
Cosmos 407 Rocket 3.6 20:01:38 10° SSW 20:06:46 74° WNW 20:11:58 10° NNE
MetOp-B 4.1 20:09:16 25° SSE 20:12:31 85° ENE 20:17:55 10° NNW
Meteor 2-3 Rocket 3.7 20:08:23 10° NNW 20:14:11 88° W 20:17:47 24° S
Cosmos 44 Rocket 3.5 20:13:33 10° SSW 20:18:26 51° ESE 20:23:27 10° NE
Meteor 1-27 4.2 20:14:09 18° S 20:18:30 71° E 20:24:18 10° NNE
Cosmos 1140 Rocket 3.8 20:14:58 10° SSW 20:20:03 65° WNW 20:25:11 10° NNE
Cosmos 1954 Rocket 3.8 20:19:29 13° SSW 20:24:06 75° ESE 20:29:17 10° NNE
CZ-2C R/B 3.6 20:20:29 10° NNE 20:24:56 88° WNW 20:27:43 23° SSW
Cosmos 2237 Rocket 3.2 20:21:48 10° NW 20:27:01 40° WSW 20:30:47 17° SSW
Timation 2 Rocket 4.1 20:20:32 10° SSW 20:27:06 78° WNW 20:33:26 10° NNE
Cosmos 2263 Rocket 3.6 20:34:38 21° E 20:34:38 21° E 20:37:28 10° NE
Spot 2 Rocket 3.4 20:32:07 42° SSE 20:33:54 80° ENE 20:39:00 10° NNW
CARTOSAT-1 3.5 20:33:28 54° SE 20:34:12 66° ENE 20:38:30 10° N
Cosmos 1766 Rocket 3.4 20:31:02 10° N 20:35:24 88° E 20:36:22 54° SSE
BREEZE M DEB (TANK) 2.8 20:28:29 10° W 20:35:25 61° NNW 20:36:34 34° NE
FALCON 9 DEB 3.8 20:38:39 10° W 20:41:38 47° NNW 20:41:38 47° NNW
Cosmos 2227 Rocket 2.8 20:36:19 10° SW 20:41:53 58° WNW 20:47:29 10° NNE
Cosmos 2082 3.5 20:37:15 15° SSW 20:41:56 81° ESE 20:47:35 10° NNE
Okean 3 Rocket 3.7 20:40:02 10° NNW 20:44:35 76° W 20:45:39 51° SSW
FALCON 9 DEB 4.1 20:43:25 10° W 20:46:18 38° NNW 20:46:28 38° NNW
Lacrosse 5 rocket 3.3 20:44:21 10° NW 20:47:57 25° NNE 20:49:58 18° ENE
Cosmos 2297 Rocket 3.4 20:43:21 10° SW 20:48:41 41° NW 20:54:03 10° NNE
Cosmos 1869 3.5 20:47:58 50° SW 20:48:47 66° W 20:52:44 10° N
Resurs 01 Rocket 3.4 20:46:10 16° SW 20:48:53 28° W 20:52:45 10° NW
Cosmos 1553 Rocket 4.3 20:48:27 41° ESE 20:49:15 43° E 20:54:57 10° NNE
Meteor 1-4 Rocket 2.8 20:50:30 62° WNW 20:50:30 62° WNW 20:53:59 10° N
Cosmos 468 Rocket 3.9 20:45:39 10° NNW 20:50:49 77° ENE 20:51:46 59° SE
Cosmos 841 Rocket 4.1 20:50:40 10° N 20:55:36 41° ENE 20:56:15 39° E
Cosmos 1763 Rocket 3.3 20:58:33 10° NNW 21:03:39 86° WSW 21:04:17 69° S
Terra 1.7 21:03:52 68° E 21:04:06 69° ENE 21:08:51 10° N
Cosmos 540 Rocket 3.5 21:06:21 10° NNW 21:11:26 62° ENE 21:11:41 61° E
Cosmos 921 Rocket 3.9 21:08:40 10° N 21:12:21 39° NE 21:12:21 39° NE
SPOT 5 2.8 21:14:08 66° SW 21:14:27 69° WSW 21:19:16 10° NNW
Meteor 2-2 Rocket 4.2 21:15:41 57° S 21:16:58 89° W 21:22:42 10° N
NOSS 3-1 (C) 4.0 21:10:02 10° NW 21:17:34 88° NE 21:20:23 48° SE
Cosmos 1842 Rocket 3.7 21:20:26 75° NW 21:20:26 75° NW 21:24:41 10° N
USA 215 3.2 21:21:35 55° SSE 21:23:03 74° SW 21:29:37 10° NW
SL-16 R/B 3.1 21:18:51 10° NW 21:24:06 39° WSW 21:25:19 35° SW
SL-08 ROCKET BODY 4.2 21:24:45 10° N 21:30:50 86° W 21:31:36 69° S
SL-4 R/B 3.1 21:26:48 10° W 21:31:13 49° NNW 21:33:32 26° NE
COSMOS 2455 3.7 21:27:59 10° WSW 21:33:46 47° NW 21:39:35 10° NNE
ERS-1 Rocket 3.6 21:33:53 43° WSW 21:34:24 45° W 21:39:14 10° NNW
Cosmos 1408 Rocket 4.5 21:30:57 10° NNW 21:34:52 41° W 21:34:52 41° W
Cosmos 2227 4.2 21:40:44 68° ENE 21:40:44 68° ENE 21:46:01 10° NNE
Cosmos 2221 3.4 21:41:54 44° WNW 21:41:54 44° WNW 21:45:46 10° N
ARIANE 5 R/B 4.4 21:41:36 22° WSW 21:42:04 22° W 21:45:31 10° NW
Sich 1 4.2 21:38:37 10° N 21:41:28 36° NNE 21:41:28 36° NNE
Cosmos 1805 Rocket 4.4 21:38:48 10° N 21:41:58 45° NNE 21:41:58 45° NNE
Meteor 1-20 Rocket 4.5 21:42:28 10° N 21:48:01 57° ENE 21:48:01 57° ENE
Cosmos 1943 3.1 21:44:34 10° NNW 21:50:06 85° NNE 21:50:06 85° NNE
Cosmos 1745 Rocket 3.8 21:46:37 10° N 21:52:57 85° W 21:53:25 77° SSW
SeaSat 1 3.8 21:48:41 10° NE 21:51:19 29° NE 21:51:19 29° NE
Cosmos 1570 Rocket 4.1 21:48:25 10° NNW 21:53:15 74° NNW 21:53:15 74° NNW
Cosmos 1709 Rocket 4.0 21:51:58 10° N 21:58:08 64° ENE 21:58:09 64° E
S3M 4.0 22:05:25 68° SW 22:06:05 75° W 22:12:32 10° N
Cosmos 883 Rocket 4.4 22:06:43 74° E 22:06:43 74° E 22:12:50 10° NNE
Cosmos 2263 Rocket 2.6 22:16:15 55° WNW 22:16:39 57° WNW 22:22:10 10° NNE
USA 229 DEB 4.0 22:19:33 10° NW 22:26:44 57° WSW 22:27:01 57° SW
USA 229 4.0 22:19:39 10° NW 22:26:50 58° WSW 22:27:07 57° SW
Lacrosse 5 rocket 3.1 22:23:15 10° NW 22:25:35 31° NW 22:25:35 31° NW
Cosmos 1844 Rocket 4.0 22:30:56 30° ENE 22:30:56 30° ENE 22:34:04 10° NE
ALOS 2 4.0 22:35:37 35° N 22:35:37 35° N 22:38:18 10° N
Terra 4.2 22:42:44 14° W 22:42:44 14° W 22:44:59 10° NW
NOSS 3-1 (A) 4.4 22:37:22 10° NW 22:44:45 52° WSW 22:45:03 51° SW
Cosmos 2154 Rocket 4.4 22:58:05 10° N 23:04:10 54° ENE 23:04:10 54° ENE
SL-4 R/B 4.3 23:07:04 10° WNW 23:09:10 24° NW 23:09:10 24° NW
SJ 16-02 4.1 23:17:22 11° ENE 23:17:22 11° ENE 23:17:34 10° ENE
Cosmos 2184 Rocket 4.0 23:09:08 10° N 23:14:58 77° N 23:14:58 77° N
Cosmos 2278 Rocket 4.2 23:19:29 17° E 23:19:29 17° E 23:21:53 10° NE
ATLAS 5 CENTAUR R/B 3.4 23:20:09 10° NNW 23:25:13 38° NE 23:27:06 31° E
SeaSat 1 4.0 23:26:33 10° N 23:30:47 29° NW 23:31:05 29° NW
Cosmos 1844 4.1 23:41:40 61° NNW 23:41:40 61° NNW 23:46:40 10° NNE
Cosmos 2074 Rocket 4.4 23:35:44 10° NNW 23:41:12 54° WNW 23:41:12 54° WNW
USA 281 3.1 23:43:08 77° E 23:43:24 78° ENE 23:50:00 10° NNW
COSMOS 2406 4.0 23:39:04 10° NNW 23:44:28 43° NE 23:44:55 42° ENE
Gbstr 26 Del rocket 4.3 23:53:47 55° ENE 23:53:47 55° ENE 23:58:03 10° ENE
